Weather History for KBML - September, 2012

Change the Weather History Date:

Sunday, September 2, 2012

  Actual Average Record
Temperature  
Mean Temperature 60 °F -  
Max Temperature 75 °F 73 °F 87 °F (1999)
Min Temperature 44 °F 44 °F 33 °F (2007)
Degree Days  
Heating Degree Days 6    
Growing Degree Days 10 (Base 50)    
Moisture  
Dew Point 47 °F    
Average Humidity 88    
Maximum Humidity 100    
Minimum Humidity 31    
Precipitation  
Precipitation 0.03 in - - ()
Sea Level Pressure  
Sea Level Pressure 30.13 in    
Wind  
Wind Speed 0 mph (NNE)    
Max Wind Speed 5 mph    
Max Gust Speed -    
Visibility 5 miles    
Events Fog , Rain    
Averages and records for this station are not official NWS values.
T = Trace of Precipitation, MM = Missing Value Source: NWS Daily Summary

Daily Weather History Graph

Daily Weather History Graph

Search for Another Location

Airport or City:

Trip Planner

Search our weather history database for the weather conditions in past years. The results will help you decide how hot, cold, wet, or windy it might be!

Date:

Astronomy

Sep. 02, 2012 Rise Set
Actual Time 6:08 AM EDT 7:18 PM EDT
Civil Twilight 5:38 AM EDT 7:48 PM EDT
Nautical Twilight 5:02 AM EDT 8:24 PM EDT
Astronomical Twilight 4:24 AM EDT 9:02 PM EDT
Moon 7:55 PM EDT (9/2) 8:22 AM EDT (9/2)
Length of Visible Light 14h 09m
Length of Day
13h 09m
Waning Gibbous, 95% of the Moon is Illuminated
Sep 2
Waning Gibbous
Sep 8
Last Quarter
Sep 15
New
Sep 22
First Quarter
Sep 29
Full

Hourly Weather History & Observations

Time (EDT) Temp. Dew Point Humidity Pressure Visibility Wind Dir Wind Speed Gust Speed Precip Events Conditions
12:25 AM 46.4 °F 44.6 °F 93% 30.13 in 1.8 mi Calm Calm - N/A   Mostly Cloudy
12:28 AM 46.4 °F 44.6 °F 93% 30.13 in 0.8 mi Calm Calm - N/A   Mist
12:50 AM 44.6 °F 44.6 °F 100% 30.14 in 0.8 mi Calm Calm - N/A   Mist
12:52 AM 45.0 °F 44.1 °F 97% 30.14 in 0.5 mi Calm Calm - N/A Fog Fog
1:01 AM 46.4 °F 44.6 °F 93% 30.13 in 0.2 mi Calm Calm - N/A Fog Fog
1:52 AM 46.0 °F 45.0 °F 96% 30.14 in 1.0 mi Calm Calm - N/A   Mist
1:56 AM 48.2 °F 46.4 °F 93% 30.13 in 0.2 mi Calm Calm - N/A Fog Fog
2:12 AM 46.4 °F 46.4 °F 100% 30.13 in 1.0 mi Calm Calm - N/A   Mist
2:15 AM 46.4 °F 46.4 °F 100% 30.13 in 3.0 mi Calm Calm - N/A   Overcast
2:21 AM 46.4 °F 46.4 °F 100% 30.13 in 1.5 mi Calm Calm - N/A   Overcast
2:23 AM 46.4 °F 46.4 °F 100% 30.13 in 0.8 mi Calm Calm - N/A   Overcast
2:35 AM 46.4 °F 46.4 °F 100% 30.13 in 0.2 mi Calm Calm - N/A Fog Fog
2:43 AM 44.6 °F 44.6 °F 100% 30.13 in 1.2 mi Calm Calm - N/A   Overcast
2:45 AM 44.6 °F 44.6 °F 100% 30.13 in 2.0 mi Calm Calm - N/A   Overcast
2:52 AM 45.0 °F 44.1 °F 97% 30.13 in 6.0 mi Calm Calm - N/A   Mostly Cloudy
3:04 AM 46.4 °F 44.6 °F 93% 30.12 in 2.5 mi Calm Calm - N/A   Scattered Clouds
3:06 AM 46.4 °F 44.6 °F 93% 30.12 in 1.0 mi Calm Calm - N/A   Mist
3:13 AM 44.6 °F 42.8 °F 93% 30.12 in 0.5 mi Calm Calm - N/A Fog Fog
3:18 AM 44.6 °F 44.6 °F 100% 30.12 in 1.5 mi Calm Calm - N/A   Mostly Cloudy
3:28 AM 44.6 °F 44.6 °F 100% 30.12 in 1.0 mi Calm Calm - N/A   Mist
3:36 AM 44.6 °F 44.6 °F 100% 30.12 in 0.2 mi Calm Calm - N/A Fog Fog
3:52 AM 46.0 °F 45.0 °F 96% 30.12 in 0.2 mi Calm Calm - N/A Fog Fog
4:52 AM 46.9 °F 45.0 °F 93% 30.12 in 0.2 mi Calm Calm - N/A Fog Fog
5:01 AM 46.4 °F 46.4 °F 100% 30.11 in 0.2 mi Calm Calm - N/A Fog Fog
5:28 AM 46.4 °F 44.6 °F 93% 30.11 in 0.8 mi Calm Calm - N/A   Mist
5:35 AM 46.4 °F 44.6 °F 93% 30.11 in 1.5 mi Calm Calm - N/A   Overcast
5:42 AM 46.4 °F 46.4 °F 100% 30.11 in 3.0 mi Calm Calm - N/A   Overcast
5:52 AM 46.9 °F 46.0 °F 97% 30.12 in 5.0 mi Calm Calm - 0.00 in Rain Light Rain
6:20 AM 48.2 °F 46.4 °F 93% 30.12 in 10.0 mi Calm Calm - 0.00 in   Overcast
6:29 AM 48.2 °F 46.4 °F 93% 30.12 in 10.0 mi Calm Calm - 0.00 in   Overcast
7:52 AM 50.0 °F 48.9 °F 96% 30.14 in 10.0 mi Calm Calm - 0.03 in   Overcast
8:25 AM 51.8 °F 50.0 °F 94% 30.13 in 10.0 mi Calm Calm - N/A   Overcast
8:42 AM 51.8 °F 50.0 °F 94% 30.13 in 10.0 mi Calm Calm - N/A   Overcast
9:05 AM 53.6 °F 51.8 °F 94% 30.13 in 10.0 mi Calm Calm - N/A   Overcast
9:41 AM 55.4 °F 51.8 °F 88% 30.13 in 10.0 mi Calm Calm - N/A   Overcast
9:52 AM 55.9 °F 52.0 °F 87% 30.15 in 10.0 mi Calm Calm - N/A   Overcast
10:52 AM 61.0 °F 55.9 °F 83% 30.14 in 10.0 mi Calm Calm - N/A   Overcast
11:52 AM 66.0 °F 57.0 °F 73% 30.13 in 10.0 mi Calm Calm - N/A   Mostly Cloudy
12:52 PM 71.1 °F 51.1 °F 49% 30.12 in 10.0 mi Calm Calm - N/A   Partly Cloudy
1:52 PM 73.0 °F 50.0 °F 44% 30.11 in 10.0 mi Calm Calm - N/A   Partly Cloudy
2:52 PM 73.0 °F 50.0 °F 44% 30.10 in 10.0 mi Calm Calm - N/A   Overcast
3:52 PM 72.0 °F 46.9 °F 41% 30.10 in 10.0 mi Calm Calm - N/A   Mostly Cloudy
4:52 PM 75.0 °F 42.1 °F 31% 30.10 in 10.0 mi NNE 4.6 mph - N/A   Scattered Clouds
5:52 PM 71.1 °F 48.0 °F 44% 30.11 in 10.0 mi Calm Calm - N/A   Clear
6:52 PM 64.0 °F 55.0 °F 73% 30.12 in 10.0 mi Calm Calm - N/A   Clear
7:52 PM 55.0 °F 52.0 °F 89% 30.15 in 10.0 mi Calm Calm - N/A   Clear
8:52 PM 51.1 °F 48.9 °F 92% 30.17 in 10.0 mi Calm Calm - N/A   Clear
9:52 PM 50.0 °F 46.9 °F 89% 30.18 in 10.0 mi Calm Calm - N/A   Clear
10:52 PM 46.9 °F 45.0 °F 93% 30.19 in 10.0 mi Calm Calm - N/A   Partly Cloudy
11:42 PM 46.4 °F 44.6 °F 93% 30.18 in 10.0 mi Calm Calm - N/A   Mostly Cloudy